User: anonymous   Login
Location: Montague
(41.3030°N, 74.7940°W)
Time: 15:42:59
(UTC-05:00)
Language:

Cosmos 1461 - Orbit

View from above orbital plane
View from above orbital plane
View from above satellite
View from above satellite

Ground track
Ground track

The orbit data is extracted from the following two-line orbital elements,

1 14064U 83044A   17347.81565891 +.00000417 +00000-0 +49624-4 0  9990
2 14064 065.0015 088.9444 0111739 325.5741 033.8169 14.93898718750189
Epoch (UTC): 13 December 2017 19:34:32
Eccentricity: 0.0111739
inclination: 65.0015°
perigee height: 508 km
apogee height: 663 km
right ascension of ascending node: 88.9444°
argument of perigee: 325.5741°
revolutions per day: 14.93898718
mean anomaly at epoch: 33.8169°
orbit number at epoch: 75018

The dashed part of the orbit path shows where the satellite is in the earth's shadow,  

DLR